[[{"header":{"parameterUnit":"m.s-1","parameterCategory":2,"la1":30.2991,"la2":30.254,"lo1":-89.0895,"lo2":-89.0444,"dy":0.0017,"dx":0.0017,"nx":28,"ny":28,"refTime":"2024-03-01T09:00:00:Z","depth":"0","parameterNumber":2,"parameterNumberName":"U-component_of_CURRENTS"},"data":[0,0,0,0,0,0,0,0,0,0,0,0,0,0,0,0,0,0,0,0,0,0,0,0,0,0,0,0,0,0,0,0,0,0,0,0,0,0,0,0,0,0,0,0,0,0,0,0,0,0,0,0,0,0,0,0,0,0,0.2539,0.254,0,0.2562,0.2562,0.2562,0.2529,0.2528,0.2527,0.2526,0.2512,0.2512,0.2513,0,0,0,0,0,0,0,0,0,0,0,0,0,0.2504,0.2505,0.2539,0.254,0.254,0.2562,0.2562,0.2562,0.2529,0.2528,0.2527,0.2526,0.2511,0.2512,0.2513,0,0,0,0,0,0,0,0,0,0,0,0,0,0.2521,0.2505,0.2539,0.2528,0.2527,0.2562,0.2562,0.2562,0.253,0.2528,0.2527,0.2525,0.2511,0.2512,0.2513,0.2547,0,0,0.2515,0.2515,0,0,0,0,0,0,0,0,0.252,0.2522,0.2529,0.2529,0.2528,0.2543,0.2545,0.2556,0.253,0.2526,0.2526,0.2524,0.2521,0.2521,0.2526,0.2547,0.2546,0.2515,0.2516,0.2516,0.2516,0,0,0,0,0,0,0,0.2519,0.2521,0.2546,0.253,0.2529,0.2535,0.2535,0.2547,0.253,0.2527,0.2525,0.2531,0.252,0.2526,0.2525,0.2546,0.2515,0.2516,0.2516,0.2517,0.2621,0.2623,0,0,0,0,0,0,0.252,0.252,0.2545,0.2547,0.2522,0.2536,0.2536,0.2538,0.253,0.2528,0.2532,0.2529,0.2525,0.2525,0.2525,0.2591,0.2516,0.2517,0.2517,0.2619,0.2621,0.2624,0,0,0,0,0,0,0.2519,0.2522,0.2545,0.2536,0.2539,0.2538,0.2541,0.2539,0.255,0.2535,0.2532,0.2545,0.2524,0.2524,0.2551,0.2588,0.2517,0.2518,0.2616,0.2619,0.2623,0.2706,0,0,0,0,0,0,0.2518,0.2521,0.2527,0.2536,0.254,0.2578,0.2542,0.2541,0.2557,0.2554,0.2546,0.2542,0.2523,0.255,0.2552,0.2588,0.2518,0.2613,0.2618,0.2622,0.27,0.2712,0.2721,0,0,0,0,0,0.2516,0.253,0.2527,0.2531,0.2546,0.258,0.2583,0.2576,0.2559,0.2578,0.2572,0.2543,0.2578,0.2553,0.2554,0.2592,0.2611,0.2616,0.2621,0.2695,0.2709,0.2721,0,0,0,0,0,0,0.2516,0.2529,0.2525,0.2541,0.2566,0.2575,0.2591,0.2589,0.2601,0.2595,0.2572,0.257,0.2611,0.2595,0.2568,0.2636,0.2591,0.2596,0.2647,0.266,0.267,0.2672,0.2519,0,0,0,0,0,0.2521,0.2534,0.2552,0.2567,0.2581,0.259,0.2603,0.2605,0.2615,0.2617,0.2614,0.2616,0.2636,0.2641,0.2653,0.269,0.2693,0.2716,0.2727,0.2736,0.2741,0.2791,0.2807,0.2641,0.2641,0.2641,0,0,0.2522,0.2534,0.2539,0.2569,0.2583,0.2614,0.2594,0.2624,0.2649,0.2616,0.2648,0.2657,0.2657,0.2699,0.2715,0.2687,0.2789,0.2743,0.275,0.275,0.2798,0.2814,0.2829,0.2644,0.2644,0.2643,0,0,0.2541,0.2548,0.2568,0.2595,0.2629,0.2641,0.2655,0.2679,0.2688,0.273,0.2715,0.2748,0.2769,0.278,0.2786,0.2867,0.2848,0.2873,0.2922,0.2972,0.2986,0.2998,0.3033,0.3047,0.2872,0.2872,0.2872,0,0.2543,0.2569,0.2583,0.2618,0.2642,0.2655,0.2691,0.2713,0.2743,0.2766,0.2749,0.2816,0.2809,0.2869,0.2892,0.289,0.2911,0.287,0.2985,0.2997,0.3008,0.3041,0.3056,0.2877,0.2876,0.2876,0.2875,0,0.2581,0.2606,0.2626,0.2668,0.2701,0.2736,0.2769,0.2806,0.282,0.2841,0.291,0.2919,0.2956,0.2966,0.2949,0.3032,0.302,0.2997,0.295,0.303,0.306,0.3074,0.2884,0.2882,0.2881,0.2879,0,0,0.2569,0.2636,0.2642,0.2669,0.2729,0.2758,0.2818,0.2876,0.2914,0.2958,0.3017,0.3061,0.3072,0.3082,0.308,0.3116,0.3208,0.3091,0.3092,0.312,0.3319,0.3299,0.3312,0.321,0.3213,0.3215,0.3312,0,0.2593,0.2656,0.2687,0.2748,0.2785,0.2827,0.2878,0.2935,0.2979,0.304,0.3081,0.3131,0.3115,0.3138,0.3182,0.3198,0.3248,0.3183,0.3241,0.3243,0.3211,0.3329,0.3217,0.3294,0.3325,0.3328,0.3329,0,0.2622,0.266,0.2719,0.279,0.2809,0.2844,0.293,0.2976,0.3069,0.3109,0.3184,0.3214,0.3289,0.3254,0.335,0.3313,0.3331,0.3339,0.3342,0.3302,0.325,0.3218,0.3317,0.3247,0.335,0.3349,0.3347,0,0.261,0.2684,0.2726,0.2751,0.2832,0.2865,0.2905,0.2994,0.304,0.3149,0.3203,0.33,0.3343,0.3401,0.3435,0.3401,0.3532,0.3481,0.3487,0.3485,0.3389,0.3374,0.342,0.3563,0.3563,0.3563,0.3563,0,0.2623,0.2655,0.2717,0.2739,0.2785,0.285,0.2907,0.297,0.3066,0.3125,0.3226,0.3298,0.3383,0.3465,0.3486,0.3548,0.3584,0.3527,0.3525,0.3416,0.3403,0.3333,0.3294,0.3566,0.3566,0.3565,0.3564,0,0.2594,0.2643,0.2684,0.2756,0.2777,0.2802,0.2881,0.2923,0.3029,0.3115,0.3156,0.3311,0.3422,0.3509,0.3601,0.3604,0.3567,0.3668,0.3533,0.3513,0.3425,0.3394,0.3283,0.3189,0.3687,0.3688,0.3688,0,0.2579,0.2602,0.2664,0.2678,0.27,0.2747,0.2778,0.2884,0.293,0.3113,0.3148,0.331,0.3401,0.3561,0.3614,0.3689,0.3574,0.3617,0.3529,0.344,0.3404,0.3231,0.3146,0.3437,0.3435,0.3434,0.3432,0,0.2539,0.256,0.2591,0.2619,0.2643,0.267,0.2722,0.2758,0.2887,0.2979,0.3102,0.3198,0.3383,0.3435,0.3565,0.3586,0.3446,0.3588,0.3534,0.326,0.3036,0.2936,0.3346,0.3419,0.342,0.3421,0.3422,0.3423,0.2497,0.2498,0.2538,0.2557,0.2573,0.2579,0.2576,0.2645,0.2713,0.2827,0.2987,0.3088,0.3264,0.3433,0.343,0.3398,0.3354,0.3325,0.3312,0.3157,0.3011,0.3398,0.3442,0.3443,0.3444,0.3445,0.3446,0,0.2447,0.246,0.2474,0.2481,0.2458,0.2504,0.2525,0.251,0.2539,0.269,0.2796,0.2975,0.3053,0.3155,0.3238,0.3158,0.2965,0.3085,0.282,0.2764,0.316,0.3097,0.3021,0.3021,0.3021,0.3021,0.3021,0.3021,0.2432,0.2426,0.2434,0.2375,0.2369,0.2304,0.2301,0.2294,0.2357,0.2444,0.2543,0.2688,0.2926,0.3071,0.3025,0.2953,0.2729,0.2608,0.2594,0.29,0.292,0.2939,0.2871,0.2749,0.2749,0.2061,0.2056,0.2052]},{"header":{"parameterUnit":"m.s-1","parameterCategory":2,"la1":30.2991,"la2":30.254,"lo1":-89.0895,"lo2":-89.0444,"dy":0.0017,"dx":0.0017,"nx":28,"ny":28,"refTime":"2024-03-01T09:00:00:Z","depth":"0","parameterNumber":3,"parameterNumberName":"V-component_of_CURRENTS"},"data":[0,0,0,0,0,0,0,0,0,0,0,0,0,0,0,0,0,0,0,0,0,0,0,0,0,0,0,0,0,0,0,0,0,0,0,0,0,0,0,0,0,0,0,0,0,0,0,0,0,0,0,0,0,0,0,0,0,0,0.0209,0.0208,0,0.0136,0.0135,0.0134,0.009,0.009,0.009,0.009,-0.0023,-0.0026,-0.0028,0,0,0,0,0,0,0,0,0,0,0,0,0,0.0229,0.0229,0.0209,0.0208,0.0207,0.0136,0.0135,0.0134,0.009,0.009,0.009,0.009,-0.0022,-0.0025,-0.0029,0,0,0,0,0,0,0,0,0,0,0,0,0,0.0193,0.0229,0.0209,0.0179,0.0176,0.0136,0.0135,0.0133,0.009,0.009,0.009,0.009,-0.002,-0.0025,-0.0029,-0.0058,0,0,-0.0043,-0.0045,0,0,0,0,0,0,0,0,0.0195,0.0192,0.0184,0.0181,0.0177,0.0124,0.0101,0.0068,0.009,0.012,0.009,0.009,0.0024,0.0016,-0.0,-0.0063,-0.0068,-0.0044,-0.0046,-0.0048,-0.0049,0,0,0,0,0,0,0,0.0197,0.0194,0.0177,0.0183,0.0179,0.0141,0.0137,0.0094,0.007,0.0118,0.0115,0.0111,0.0022,0.0004,-0.0003,-0.0069,-0.0043,-0.0047,-0.005,-0.0052,-0.0173,-0.0173,0,0,0,0,0,0,0.0216,0.0197,0.018,0.0176,0.0189,0.0142,0.0136,0.0139,0.0072,0.0062,0.0111,0.0109,0.0012,0.0002,-0.0008,-0.0034,-0.0048,-0.0052,-0.0055,-0.0172,-0.0173,-0.0173,0,0,0,0,0,0,0.0216,0.0215,0.0183,0.0186,0.0179,0.0142,0.0145,0.0138,0.0125,0.0067,0.0057,0.0106,0.0011,-0.0001,-0.0039,-0.0039,-0.0054,-0.0059,-0.0172,-0.0172,-0.0173,-0.0095,0,0,0,0,0,0,0.0217,0.0216,0.0222,0.0188,0.018,0.017,0.0145,0.0137,0.0123,0.012,0.006,0.0049,0.0011,-0.0032,-0.0044,-0.0046,-0.0062,-0.0171,-0.0172,-0.0173,-0.0097,-0.0093,-0.009,0,0,0,0,0,0.0218,0.0231,0.0223,0.022,0.0191,0.0171,0.0164,0.0135,0.0123,0.0122,0.008,0.0051,-0.0047,-0.0036,-0.0049,-0.0053,-0.0171,-0.0172,-0.0173,-0.0099,-0.0094,-0.009,0,0,0,0,0,0,0.024,0.0227,0.0217,0.0224,0.0204,0.0165,0.0161,0.0141,0.0107,0.0104,0.0049,0.0035,-0.0001,-0.004,-0.0027,-0.0093,-0.0115,-0.0119,-0.0054,-0.005,-0.0047,-0.0005,-0.0066,0,0,0,0,0,0.025,0.0256,0.0233,0.0238,0.0233,0.0198,0.0186,0.0169,0.0135,0.012,0.0078,0.0028,-0.0018,-0.0042,-0.0088,-0.012,-0.0132,-0.0135,-0.0131,-0.0127,-0.0104,-0.0123,-0.0117,-0.0177,-0.0177,-0.0177,0,0,0.0258,0.0252,0.0255,0.0243,0.0224,0.0224,0.019,0.0181,0.0177,0.0113,0.0091,0.004,-0.0025,-0.0061,-0.0081,-0.0091,-0.0118,-0.0129,-0.0125,-0.0103,-0.0123,-0.0117,-0.0112,-0.0178,-0.0178,-0.0177,0,0,0.0285,0.0276,0.0293,0.0282,0.0266,0.0245,0.0248,0.0215,0.0198,0.0171,0.0121,0.0078,0.0008,-0.0035,-0.0067,-0.0072,-0.0098,-0.0096,-0.0041,-0.006,-0.0054,-0.0049,-0.0053,-0.0049,-0.0094,-0.0093,-0.0093,0,0.0295,0.0314,0.0293,0.0305,0.0303,0.0262,0.0278,0.0252,0.0209,0.0205,0.0176,0.0087,0.0023,-0.0012,-0.0021,-0.0061,-0.0066,-0.0049,-0.0051,-0.0047,-0.0043,-0.0048,-0.0044,-0.009,-0.009,-0.0091,-0.0091,0,0.0334,0.0347,0.0355,0.036,0.0355,0.0358,0.033,0.0319,0.0292,0.0268,0.0234,0.0152,0.0109,0.0065,0.0018,0.0006,-0.0004,-0.0041,-0.0051,-0.0031,-0.0039,-0.0036,-0.0085,-0.0086,-0.0087,-0.0088,0,0,0.0364,0.0381,0.0384,0.0405,0.0386,0.0394,0.0388,0.038,0.0401,0.0337,0.0359,0.0249,0.0221,0.0183,0.0115,0.0084,0.0086,0.0041,0.0038,0.0059,0.0068,0.006,0.0061,0.0057,0.0057,0.0058,0.0055,0,0.0401,0.0449,0.0439,0.048,0.0504,0.0473,0.0481,0.047,0.0448,0.0457,0.0375,0.0363,0.0261,0.0253,0.0204,0.0122,0.0096,0.0092,0.0028,0.0027,0.0034,0.0064,0.0064,0.0061,0.0057,0.0057,0.0058,0,0.0443,0.0473,0.0528,0.0565,0.0574,0.0592,0.062,0.0623,0.0611,0.0601,0.0571,0.0519,0.0463,0.038,0.0266,0.0274,0.0186,0.0113,0.0111,0.0083,0.0023,0.0036,0.0065,-0.0093,0.0061,0.0061,0.006,0,0.0495,0.0535,0.0589,0.0597,0.0629,0.0656,0.0671,0.0675,0.0711,0.071,0.0752,0.066,0.065,0.0521,0.036,0.0325,0.0249,0.0177,0.0088,0.0087,0.0065,0.006,-0.0047,0.0112,0.0112,0.0112,0.0112,0,0.0541,0.0584,0.0626,0.0658,0.0738,0.0734,0.0818,0.0817,0.0859,0.0944,0.0846,0.0898,0.0688,0.0613,0.0437,0.0289,0.031,0.0122,0.0091,0.009,0.0088,-0.007,-0.0154,0.0112,0.0112,0.0112,0.0112,0,0.059,0.0612,0.0684,0.074,0.0769,0.083,0.0924,0.0993,0.1016,0.1131,0.1148,0.1094,0.0997,0.0783,0.0587,0.0415,0.0166,0.0189,0.021,0.0182,-0.0064,-0.0143,-0.0249,-0.0321,0.0096,0.0096,0.0096,0,0.0621,0.0666,0.0755,0.0818,0.0852,0.0946,0.1024,0.1068,0.1159,0.1266,0.1341,0.1286,0.1274,0.0981,0.0651,0.0366,0.019,0.0182,0.0095,-0.0054,-0.0166,-0.0224,-0.0282,0.0094,0.0094,0.0094,0.0094,0,0.0691,0.0723,0.0792,0.0921,0.1018,0.1125,0.1244,0.1341,0.143,0.1531,0.1657,0.166,0.1387,0.1088,0.0682,0.0472,0.008,0.0172,0.0007,-0.0171,-0.0229,-0.032,0.0078,0.0093,0.0093,0.0093,0.0093,0.0093,0.0754,0.0822,0.0927,0.1049,0.1161,0.1313,0.1418,0.1557,0.1724,0.1889,0.1883,0.19,0.1473,0.0912,0.0614,0.0072,0.0068,-0.0108,-0.0187,-0.0229,-0.0313,0.0098,0.0079,0.0079,0.0079,0.0079,0.0079,0,0.0849,0.0937,0.1054,0.1211,0.1343,0.1381,0.1577,0.1697,0.1903,0.2018,0.2111,0.19,0.139,0.0858,0.0137,-0.0228,-0.0369,-0.0423,-0.0524,-0.0566,-0.021,-0.0227,-0.0299,-0.0299,-0.0299,-0.0299,-0.0299,-0.0298,0.0918,0.1056,0.112,0.1357,0.1459,0.1638,0.1751,0.1922,0.2031,0.2163,0.2143,0.2108,0.1717,0.0474,-0.0371,-0.057,-0.0806,-0.0857,-0.0975,-0.0763,-0.0741,-0.072,-0.0757,-0.0939,-0.094,-0.1301,-0.1305,-0.1308]}],[{"header":{"parameterUnit":"m.s-1","parameterCategory":2,"la1":30.2991,"la2":30.254,"lo1":-89.0895,"lo2":-89.0444,"dy":0.0017,"dx":0.0017,"nx":28,"ny":28,"refTime":"2024-03-01T09:00:00:Z","depth":"2","parameterNumber":2,"parameterNumberName":"U-component_of_CURRENTS"},"data":[0,0,0,0,0,0,0,0,0,0,0,0,0,0,0,0,0,0,0,0,0,0,0,0,0,0,0,0,0,0,0,0,0,0,0,0,0,0,0,0,0,0,0,0,0,0,0,0,0,0,0,0,0,0,0,0,0,0,0.2205,0.2206,0,0.2231,0.2231,0.2231,0.2224,0.2223,0.2223,0.2223,0.2238,0.2238,0.2239,0,0,0,0,0,0,0,0,0,0,0,0,0,0.2175,0.2176,0.2205,0.2206,0.2206,0.2231,0.2231,0.2231,0.2224,0.2223,0.2223,0.2222,0.2237,0.2238,0.2239,0,0,0,0,0,0,0,0,0,0,0,0,0,0.2192,0.2176,0.2205,0.2206,0.2207,0.2231,0.2231,0.2231,0.2224,0.2223,0.2223,0.2222,0.2237,0.2238,0.2239,0.2259,0,0,0.2243,0.2243,0,0,0,0,0,0,0,0,0.2191,0.2193,0.2206,0.2206,0.2207,0.2225,0.2226,0.2241,0.2224,0.2216,0.2223,0.2222,0.2234,0.2235,0.224,0.226,0.226,0.2243,0.2244,0.2244,0.2245,0,0,0,0,0,0,0,0.219,0.2192,0.2214,0.2206,0.2207,0.2214,0.2216,0.2229,0.2227,0.2217,0.2217,0.2222,0.2234,0.2238,0.224,0.2261,0.2243,0.2244,0.2245,0.2245,0.235,0.2352,0,0,0,0,0,0,0.2189,0.2191,0.2213,0.2215,0.2199,0.2215,0.2217,0.2219,0.2227,0.2228,0.2222,0.2221,0.2237,0.2239,0.224,0.2316,0.2244,0.2245,0.2246,0.2348,0.2351,0.2353,0,0,0,0,0,0,0.2188,0.219,0.2212,0.2205,0.2208,0.2217,0.2219,0.2219,0.224,0.2231,0.2232,0.2243,0.2236,0.2239,0.2272,0.2314,0.2246,0.2247,0.2346,0.2349,0.2352,0.2433,0,0,0,0,0,0,0.2187,0.219,0.2196,0.2205,0.2209,0.2239,0.2219,0.222,0.2243,0.2243,0.225,0.2249,0.2236,0.2271,0.2274,0.2314,0.2248,0.2343,0.2347,0.2351,0.2428,0.2438,0.2448,0,0,0,0,0,0.2186,0.22,0.2196,0.2199,0.2214,0.224,0.2243,0.2246,0.2245,0.2261,0.227,0.225,0.2298,0.2274,0.2276,0.2318,0.2341,0.2346,0.2351,0.2423,0.2436,0.2447,0,0,0,0,0,0,0.219,0.2201,0.2196,0.2212,0.2229,0.2239,0.226,0.2261,0.2281,0.2283,0.2275,0.2276,0.2319,0.2312,0.2286,0.2361,0.2318,0.2323,0.2372,0.2384,0.2394,0.2403,0.2249,0,0,0,0,0,0.2194,0.2212,0.2217,0.2237,0.2246,0.2257,0.2271,0.2271,0.2287,0.2296,0.2307,0.2321,0.234,0.2356,0.2366,0.2411,0.241,0.2441,0.2451,0.2459,0.247,0.2498,0.2512,0.2369,0.2369,0.2368,0,0,0.22,0.2213,0.222,0.224,0.2256,0.2282,0.2265,0.2292,0.2316,0.2295,0.2346,0.2355,0.2359,0.2405,0.2425,0.2405,0.2505,0.2465,0.2472,0.2479,0.2505,0.2518,0.2531,0.2372,0.2371,0.2371,0,0,0.223,0.2237,0.2259,0.2277,0.2302,0.2313,0.2326,0.2349,0.236,0.24,0.2398,0.2442,0.2465,0.249,0.25,0.2577,0.2552,0.2576,0.2641,0.2669,0.268,0.2691,0.2726,0.2739,0.2586,0.2587,0.2587,0,0.2236,0.2262,0.2272,0.2302,0.2323,0.2333,0.2362,0.2381,0.2414,0.2439,0.2424,0.2504,0.2509,0.258,0.2605,0.2602,0.2606,0.2592,0.2681,0.2691,0.27,0.2734,0.2747,0.2591,0.2591,0.259,0.259,0,0.2273,0.2301,0.2325,0.2364,0.239,0.2421,0.2442,0.2482,0.2501,0.2517,0.2588,0.2607,0.2657,0.2671,0.2659,0.274,0.272,0.2685,0.2648,0.2719,0.2751,0.2763,0.2597,0.2596,0.2595,0.2593,0,0,0.2273,0.2333,0.2344,0.2369,0.2421,0.2444,0.2508,0.2559,0.2599,0.2643,0.2702,0.2762,0.2777,0.2792,0.2799,0.2831,0.2907,0.2789,0.2788,0.282,0.2973,0.2917,0.2924,0.2876,0.2879,0.288,0.2976,0,0.23,0.2352,0.2385,0.245,0.2478,0.2522,0.2573,0.2623,0.2663,0.2722,0.2769,0.2819,0.2819,0.2846,0.2887,0.2893,0.2939,0.2885,0.2903,0.2904,0.2841,0.2937,0.2725,0.2788,0.2987,0.2989,0.299,0,0.2326,0.2357,0.2409,0.2483,0.25,0.2544,0.2633,0.2678,0.2763,0.2796,0.2876,0.2892,0.2985,0.2944,0.3037,0.2997,0.3001,0.3003,0.3005,0.2931,0.287,0.2745,0.2802,0.301,0.3008,0.3007,0.3006,0,0.231,0.2385,0.2424,0.2447,0.2522,0.2569,0.2621,0.2704,0.275,0.2849,0.2896,0.2985,0.3037,0.3068,0.3098,0.3063,0.3169,0.3116,0.3083,0.3079,0.2893,0.2869,0.3177,0.3177,0.3177,0.3177,0.3176,0,0.2326,0.2359,0.2418,0.2437,0.2497,0.2555,0.2629,0.2701,0.2789,0.2838,0.2932,0.2992,0.3064,0.3126,0.3133,0.3164,0.3209,0.3122,0.3107,0.2918,0.2896,0.307,0.3056,0.318,0.3179,0.3179,0.3178,0,0.2301,0.2342,0.2382,0.2455,0.2492,0.2527,0.2636,0.2669,0.278,0.2853,0.2889,0.3021,0.3108,0.3177,0.3234,0.3212,0.3235,0.3228,0.3012,0.297,0.3118,0.3107,0.3205,0.3204,0.3203,0.3202,0.3202,0,0.2291,0.2306,0.238,0.2399,0.2435,0.2503,0.254,0.2657,0.2696,0.2854,0.2876,0.3011,0.3071,0.3185,0.3184,0.322,0.3249,0.3015,0.2912,0.3149,0.3125,0.3116,0.3107,0.2708,0.2704,0.27,0.2697,0,0.2257,0.2278,0.2304,0.2345,0.2385,0.2436,0.2507,0.2539,0.2653,0.2724,0.2819,0.2885,0.3018,0.2969,0.3034,0.3011,0.2993,0.2939,0.3252,0.273,0.2687,0.2661,0.2667,0.2663,0.2667,0.2669,0.2671,0.2672,0.222,0.2224,0.2256,0.2288,0.2326,0.2354,0.2356,0.242,0.2479,0.2538,0.2666,0.2698,0.276,0.2761,0.2698,0.2667,0.2857,0.2719,0.2728,0.2741,0.2663,0.262,0.2571,0.2573,0.2576,0.2578,0.2579,0,0.2187,0.2187,0.2199,0.2221,0.2205,0.2278,0.2311,0.2275,0.2284,0.2375,0.2432,0.2285,0.229,0.2356,0.2272,0.2282,0.223,0.2176,0.2087,0.2125,0.2158,0.2045,0.1791,0.1788,0.1785,0.1782,0,0,0.216,0.2145,0.2146,0.2101,0.2114,0.2079,0.2076,0.2039,0.2077,0.2038,0.2042,0.2207,0.232,0.2022,0.2002,0.1884,0.1979,0.1814,0.2462,0.24,0.2428,0.2506,0.2381,0,0,0,0,0]},{"header":{"parameterUnit":"m.s-1","parameterCategory":2,"la1":30.2991,"la2":30.254,"lo1":-89.0895,"lo2":-89.0444,"dy":0.0017,"dx":0.0017,"nx":28,"ny":28,"refTime":"2024-03-01T09:00:00:Z","depth":"2","parameterNumber":3,"parameterNumberName":"V-component_of_CURRENTS"},"data":[0,0,0,0,0,0,0,0,0,0,0,0,0,0,0,0,0,0,0,0,0,0,0,0,0,0,0,0,0,0,0,0,0,0,0,0,0,0,0,0,0,0,0,0,0,0,0,0,0,0,0,0,0,0,0,0,0,0,0.0042,0.0042,0,0.0003,0.0002,0.0002,-0.0028,-0.0029,-0.0029,-0.0029,-0.0114,-0.0116,-0.0119,0,0,0,0,0,0,0,0,0,0,0,0,0,0.0037,0.0037,0.0042,0.0042,0.0042,0.0003,0.0002,0.0002,-0.0028,-0.0029,-0.0029,-0.0029,-0.0114,-0.0116,-0.0119,0,0,0,0,0,0,0,0,0,0,0,0,0,0.0021,0.0037,0.0042,0.0023,0.0021,0.0003,0.0002,0.0001,-0.0028,-0.0029,-0.0029,-0.0029,-0.0113,-0.0116,-0.0119,-0.0136,0,0,-0.0129,-0.0131,0,0,0,0,0,0,0,0,0.0022,0.0021,0.0026,0.0025,0.0022,-0.0006,-0.0031,-0.0046,-0.0028,-0.0012,-0.0029,-0.0029,-0.0081,-0.0087,-0.0096,-0.014,-0.0144,-0.0129,-0.0131,-0.0133,-0.0134,0,0,0,0,0,0,0,0.0023,0.0022,0.0025,0.0026,0.0024,-0.0002,-0.0004,-0.0034,-0.0047,-0.0013,-0.0015,-0.0016,-0.0083,-0.0093,-0.0099,-0.0145,-0.0129,-0.0132,-0.0134,-0.0136,-0.0213,-0.0213,0,0,0,0,0,0,0.0035,0.0023,0.0026,0.0024,0.0024,-0.0001,-0.0004,0.0001,-0.0046,-0.0053,-0.0016,-0.0017,-0.0087,-0.0095,-0.0102,-0.0118,-0.0133,-0.0136,-0.0138,-0.0213,-0.0213,-0.0213,0,0,0,0,0,0,0.0035,0.0036,0.0027,0.0024,0.0021,-0.0,0.0005,0.0001,-0.0006,-0.0047,-0.0055,-0.0017,-0.0088,-0.0097,-0.0123,-0.0121,-0.0137,-0.014,-0.0213,-0.0213,-0.0213,-0.0154,0,0,0,0,0,0,0.0035,0.0036,0.0041,0.0025,0.0022,0.0025,0.0006,0.0,-0.0006,-0.0008,-0.0051,-0.006,-0.0088,-0.0118,-0.0126,-0.0126,-0.0143,-0.0213,-0.0213,-0.0213,-0.0156,-0.0152,-0.0149,0,0,0,0,0,0.0035,0.0049,0.0042,0.0042,0.0031,0.0026,0.0022,0.0004,-0.0005,-0.0004,-0.0034,-0.0058,-0.0125,-0.012,-0.013,-0.0131,-0.0213,-0.0213,-0.0213,-0.0157,-0.0153,-0.0149,0,0,0,0,0,0,0.0047,0.0047,0.0038,0.0051,0.0041,0.0022,0.0023,0.0009,-0.0013,-0.0017,-0.0058,-0.0068,-0.009,-0.012,-0.0114,-0.0155,-0.0174,-0.0176,-0.0128,-0.0125,-0.0121,-0.0092,-0.0146,0,0,0,0,0,0.0053,0.0064,0.0054,0.0062,0.0062,0.0042,0.0037,0.0026,0.0006,-0.0004,-0.0034,-0.0069,-0.01,-0.0118,-0.0148,-0.017,-0.0191,-0.0179,-0.0175,-0.0172,-0.0156,-0.0188,-0.0185,-0.0214,-0.0214,-0.0214,0,0,0.0059,0.0061,0.0066,0.0066,0.0057,0.0066,0.0039,0.0038,0.0042,-0.001,-0.0018,-0.0056,-0.0102,-0.0125,-0.0138,-0.0149,-0.0176,-0.0172,-0.0169,-0.0154,-0.0187,-0.0184,-0.0182,-0.0214,-0.0214,-0.0214,0,0,0.0084,0.008,0.01,0.0099,0.0095,0.0083,0.0087,0.007,0.006,0.0046,0.0009,-0.0025,-0.007,-0.0102,-0.0125,-0.0122,-0.0154,-0.0136,-0.0097,-0.0128,-0.0126,-0.0124,-0.0145,-0.0146,-0.0137,-0.0137,-0.0136,0,0.0089,0.0115,0.0103,0.0122,0.0128,0.0097,0.0119,0.0104,0.0079,0.0076,0.0052,-0.001,-0.0058,-0.0081,-0.0084,-0.0113,-0.0129,-0.0107,-0.0122,-0.012,-0.0119,-0.0142,-0.0143,-0.0134,-0.0134,-0.0134,-0.0135,0,0.0132,0.0149,0.0162,0.0178,0.018,0.0193,0.0178,0.0173,0.0152,0.0135,0.011,0.0046,0.0013,-0.0018,-0.0053,-0.0069,-0.0082,-0.011,-0.0127,-0.0112,-0.0138,-0.014,-0.013,-0.0131,-0.0132,-0.0132,0,0,0.0152,0.0187,0.019,0.0215,0.0214,0.0227,0.0231,0.0233,0.0247,0.02,0.0212,0.0135,0.0104,0.0076,0.0022,-0.0016,-0.0038,-0.0054,-0.0057,-0.0064,-0.0094,-0.0124,-0.013,-0.0065,-0.0065,-0.0065,-0.0115,0,0.0189,0.0246,0.0247,0.0295,0.0325,0.0306,0.0321,0.0315,0.0295,0.0294,0.0225,0.021,0.0139,0.0124,0.0076,-0.0005,-0.0041,-0.0021,-0.0116,-0.0119,-0.0138,-0.0132,-0.0093,-0.0136,-0.0117,-0.0118,-0.0118,0,0.0231,0.0267,0.0329,0.0374,0.0385,0.0408,0.0434,0.0443,0.0425,0.0411,0.0378,0.0325,0.0267,0.0203,0.0084,0.0103,0.0017,-0.0054,-0.0058,-0.0104,-0.0152,-0.0149,-0.0141,-0.0122,-0.0122,-0.0122,-0.0121,0,0.0271,0.0324,0.0381,0.0396,0.0438,0.0465,0.0484,0.0483,0.0511,0.0492,0.0509,0.0422,0.0395,0.0275,0.0123,0.0108,-0.0006,-0.005,-0.0156,-0.0159,-0.0153,-0.0155,-0.0128,-0.0128,-0.0128,-0.0128,-0.0127,0,0.0315,0.0359,0.0411,0.0446,0.0521,0.0527,0.0597,0.0598,0.062,0.0658,0.0583,0.0592,0.0413,0.0321,0.0169,0.0009,0.0029,-0.0139,-0.0173,-0.0133,-0.0133,-0.0144,-0.0145,-0.0129,-0.0129,-0.0129,-0.0128,0,0.035,0.0381,0.0454,0.0517,0.0547,0.0602,0.0686,0.0731,0.0745,0.0794,0.0796,0.0729,0.0605,0.0422,0.0224,0.008,-0.0084,-0.0147,-0.0084,-0.0111,-0.0227,-0.0225,-0.0268,-0.0269,-0.0271,-0.0272,-0.0273,0,0.0375,0.0421,0.0514,0.0566,0.0602,0.0688,0.0749,0.0791,0.0847,0.0874,0.0908,0.0816,0.0751,0.0472,0.0207,-0.0047,-0.0087,-0.0184,-0.0222,-0.0212,-0.0241,-0.0237,-0.0233,-0.019,-0.019,-0.019,-0.019,0,0.0426,0.0459,0.0518,0.0627,0.0707,0.0807,0.0899,0.0962,0.1003,0.1044,0.1069,0.102,0.0769,0.0525,0.0186,0.0009,-0.0144,-0.0195,-0.0192,-0.0165,-0.0144,-0.0171,-0.0168,-0.0191,-0.0191,-0.0191,-0.0191,-0.0191,0.0457,0.0505,0.0587,0.0689,0.0794,0.0914,0.0982,0.1076,0.1168,0.1217,0.1173,0.1123,0.0849,0.0428,0.0136,-0.0155,-0.0157,-0.0265,-0.0262,-0.026,-0.0246,-0.023,-0.0289,-0.0289,-0.029,-0.029,-0.029,0,0.0495,0.0552,0.0644,0.0765,0.087,0.0934,0.1075,0.113,0.1228,0.1289,0.1294,0.1036,0.0781,0.0485,0.0061,-0.0219,-0.0235,-0.0308,-0.0255,-0.0252,-0.025,-0.0235,-0.0275,-0.0276,-0.0276,-0.0277,0,0,0.0514,0.0594,0.064,0.0806,0.0899,0.1044,0.1119,0.1203,0.1282,0.1318,0.1314,0.1249,0.0899,0.0588,0.022,-0.0012,-0.0073,-0.007,-0.0051,0.0058,0.0064,-0.0194,-0.0164,0,0,0,0,0]}],[{"header":{"parameterUnit":"m.s-1","parameterCategory":2,"la1":30.2991,"la2":30.254,"lo1":-89.0895,"lo2":-89.0444,"dy":0.0017,"dx":0.0017,"nx":28,"ny":28,"refTime":"2024-03-01T09:00:00:Z","depth":"4","parameterNumber":2,"parameterNumberName":"U-component_of_CURRENTS"},"data":[0,0,0,0,0,0,0,0,0,0,0,0,0,0,0,0,0,0,0,0,0,0,0,0,0,0,0,0,0,0,0,0,0,0,0,0,0,0,0,0,0,0,0,0,0,0,0,0,0,0,0,0,0,0,0,0,0,0,0.1374,0.1375,0,0.1432,0.1433,0.1433,0.1491,0.1492,0.1493,0.1494,0.1556,0.1556,0.1557,0,0,0,0,0,0,0,0,0,0,0,0,0,0.1304,0.1305,0.1374,0.1375,0.1376,0.1432,0.1433,0.1434,0.1491,0.1492,0.1493,0.1494,0.1555,0.1556,0.1557,0,0,0,0,0,0,0,0,0,0,0,0,0,0.1345,0.1306,0.1374,0.1412,0.1416,0.1432,0.1433,0.1434,0.1491,0.1492,0.1493,0.1495,0.1555,0.1556,0.1557,0.1539,0,0,0.1561,0.1562,0,0,0,0,0,0,0,0,0.1342,0.1347,0.1405,0.1409,0.1414,0.1457,0.1431,0.147,0.1491,0.1461,0.1494,0.1495,0.1522,0.1526,0.1533,0.1542,0.1545,0.1561,0.1562,0.1563,0.1563,0,0,0,0,0,0,0,0.134,0.1345,0.1396,0.1406,0.1411,0.1423,0.143,0.1439,0.1483,0.1464,0.1468,0.1476,0.1525,0.1532,0.1535,0.1546,0.1561,0.1562,0.1563,0.1564,0.1647,0.1648,0,0,0,0,0,0,0.1334,0.1342,0.1394,0.1398,0.1382,0.1424,0.1432,0.1441,0.1483,0.1491,0.1475,0.1479,0.1529,0.1533,0.1537,0.161,0.1563,0.1564,0.1565,0.1646,0.1647,0.1649,0,0,0,0,0,0,0.1332,0.1338,0.1392,0.1372,0.138,0.1424,0.1433,0.1441,0.1478,0.1492,0.15,0.1507,0.153,0.1536,0.1572,0.1609,0.1564,0.1566,0.1644,0.1646,0.1648,0.1696,0,0,0,0,0,0,0.133,0.1337,0.1354,0.1372,0.1381,0.1419,0.1433,0.1442,0.1479,0.1486,0.1521,0.1527,0.1532,0.157,0.1573,0.161,0.1567,0.1642,0.1645,0.1648,0.1692,0.1699,0.1705,0,0,0,0,0,0.1327,0.1338,0.1354,0.1361,0.1399,0.142,0.1426,0.146,0.148,0.1498,0.1526,0.1527,0.159,0.1572,0.1575,0.1613,0.1641,0.1644,0.1647,0.1689,0.1698,0.1705,0,0,0,0,0,0,0.1314,0.1345,0.1364,0.1384,0.1411,0.1431,0.1452,0.1473,0.1509,0.1526,0.1537,0.1545,0.1594,0.1593,0.1573,0.1646,0.1619,0.1623,0.165,0.1658,0.1664,0.167,0.1568,0,0,0,0,0,0.1319,0.134,0.1367,0.1387,0.1401,0.1432,0.145,0.1476,0.1503,0.1522,0.1547,0.1576,0.1603,0.1623,0.1643,0.1675,0.1687,0.1705,0.1711,0.1716,0.1724,0.178,0.1792,0.166,0.166,0.166,0,0,0.1318,0.1339,0.1352,0.1387,0.141,0.1432,0.1447,0.1484,0.1516,0.1521,0.1576,0.1599,0.1617,0.1661,0.1683,0.1669,0.176,0.1721,0.1725,0.173,0.1785,0.1798,0.1809,0.1662,0.1662,0.1661,0,0,0.1316,0.1348,0.1364,0.1391,0.1434,0.145,0.1467,0.1506,0.1544,0.159,0.1609,0.1651,0.169,0.1713,0.1727,0.1778,0.1792,0.1795,0.1834,0.1888,0.19,0.191,0.1937,0.1949,0.1799,0.1799,0.1799,0,0.1319,0.1343,0.1372,0.1396,0.1424,0.146,0.1486,0.152,0.1572,0.1613,0.1618,0.1704,0.1714,0.1772,0.1795,0.1794,0.1823,0.1801,0.1897,0.1907,0.1917,0.1942,0.1955,0.1802,0.1802,0.1801,0.1801,0,0.1323,0.1356,0.1368,0.1411,0.1443,0.1474,0.1521,0.1569,0.1616,0.1658,0.1742,0.1762,0.1819,0.183,0.1828,0.1908,0.1905,0.1898,0.1876,0.1933,0.1956,0.1968,0.1806,0.1805,0.1804,0.1803,0,0,0.1289,0.1359,0.1366,0.1401,0.1462,0.1486,0.1548,0.1616,0.1676,0.1735,0.1814,0.1861,0.1898,0.1915,0.1928,0.1968,0.2051,0.1971,0.1972,0.1995,0.217,0.2026,0.2025,0.2075,0.2077,0.208,0.2156,0,0.1289,0.1334,0.1373,0.1426,0.1455,0.1522,0.1575,0.1651,0.1722,0.1805,0.186,0.1935,0.1924,0.1968,0.2009,0.205,0.2089,0.2031,0.2113,0.2115,0.1979,0.2037,0.2088,0.2165,0.2168,0.217,0.2172,0,0.1274,0.1314,0.1365,0.1454,0.1476,0.1518,0.163,0.169,0.1811,0.1874,0.1963,0.2013,0.2095,0.2071,0.2173,0.2146,0.2167,0.2181,0.2185,0.2042,0.1994,0.2099,0.2194,0.2192,0.2191,0.2189,0.2188,0,0.1226,0.1307,0.1352,0.1382,0.1482,0.1538,0.1603,0.1721,0.1796,0.1936,0.2006,0.2104,0.2172,0.2224,0.226,0.2242,0.2353,0.2328,0.2211,0.22,0.2286,0.2274,0.2395,0.2395,0.2395,0.2395,0.2394,0,0.1193,0.1235,0.1344,0.1368,0.1444,0.1533,0.1633,0.1715,0.185,0.1936,0.2049,0.2116,0.2221,0.2291,0.2303,0.2294,0.2396,0.2227,0.2217,0.2302,0.2292,0.2294,0.2281,0.2397,0.2397,0.2396,0.2396,0,0.1126,0.1191,0.1258,0.138,0.142,0.1485,0.1636,0.1708,0.185,0.1965,0.2019,0.2166,0.2254,0.2321,0.2404,0.2337,0.2346,0.2313,0.2399,0.2392,0.2145,0.2135,0.2194,0.219,0.2186,0.2183,0.2181,0,0.1089,0.1119,0.1251,0.1297,0.1357,0.1467,0.1534,0.1687,0.1765,0.1968,0.2008,0.2154,0.2229,0.2235,0.2308,0.2325,0.2292,0.2277,0.2203,0.2144,0.2129,0.2124,0.2118,0.2175,0.2174,0.2173,0.2172,0,0.1029,0.1091,0.1144,0.1242,0.1321,0.1403,0.1517,0.1561,0.1736,0.1872,0.196,0.2014,0.2102,0.2152,0.2181,0.2183,0.2277,0.2238,0.2245,0.2175,0.2121,0.2109,0.2107,0.216,0.2161,0.2163,0.2163,0,0.0989,0.1016,0.1098,0.1179,0.1265,0.132,0.1392,0.1485,0.1576,0.1791,0.1809,0.1957,0.2083,0.208,0.2105,0.2101,0.2064,0.1987,0.2006,0.2021,0.1925,0.1828,0.1778,0,0,0,0,0,0.0945,0.097,0.1032,0.1106,0.1187,0.1246,0.1369,0.1448,0.1603,0.1621,0.1716,0.1787,0.1844,0.1918,0.1878,0.2019,0.2065,0.1962,0.1984,0.2089,0.2104,0.2005,0,0,0,0,0,0,0.0913,0.0964,0.0997,0.1026,0.1068,0.1148,0.1225,0.1333,0.1356,0.1517,0.156,0.1675,0.1757,0.185,0.1843,0.1862,0.1838,0.2049,0.2044,0.2081,0.2094,0.2106,0.201,0,0,0,0,0]},{"header":{"parameterUnit":"m.s-1","parameterCategory":2,"la1":30.2991,"la2":30.254,"lo1":-89.0895,"lo2":-89.0444,"dy":0.0017,"dx":0.0017,"nx":28,"ny":28,"refTime":"2024-03-01T09:00:00:Z","depth":"4","parameterNumber":3,"parameterNumberName":"V-component_of_CURRENTS"},"data":[0,0,0,0,0,0,0,0,0,0,0,0,0,0,0,0,0,0,0,0,0,0,0,0,0,0,0,0,0,0,0,0,0,0,0,0,0,0,0,0,0,0,0,0,0,0,0,0,0,0,0,0,0,0,0,0,0,0,0.0064,0.0064,0,0.0053,0.0053,0.0053,0.0032,0.0031,0.0031,0.0031,-0.0012,-0.0012,-0.0013,0,0,0,0,0,0,0,0,0,0,0,0,0,0.0044,0.0044,0.0064,0.0064,0.0064,0.0053,0.0053,0.0053,0.0032,0.0031,0.0031,0.003,-0.0011,-0.0012,-0.0013,0,0,0,0,0,0,0,0,0,0,0,0,0,0.0044,0.0044,0.0064,0.0053,0.0052,0.0053,0.0053,0.0052,0.0032,0.0031,0.0031,0.003,-0.0011,-0.0012,-0.0013,-0.0011,0,0,-0.0017,-0.0018,0,0,0,0,0,0,0,0,0.0044,0.0044,0.0055,0.0054,0.0053,0.0044,0.003,0.003,0.0032,0.0038,0.0031,0.003,0.0005,0.0003,0.0001,-0.0013,-0.0015,-0.0017,-0.0018,-0.0019,-0.0019,0,0,0,0,0,0,0,0.0044,0.0045,0.0059,0.0055,0.0054,0.004,0.004,0.003,0.0023,0.0038,0.0037,0.0037,0.0004,0.0002,-0.0001,-0.0016,-0.0017,-0.0018,-0.0019,-0.002,-0.0031,-0.0031,0,0,0,0,0,0,0.0049,0.0045,0.0059,0.0059,0.0048,0.0041,0.0041,0.0047,0.0024,0.0021,0.0037,0.0036,0.0004,0.0001,-0.0002,0.0007,-0.0018,-0.002,-0.002,-0.0031,-0.0031,-0.003,0,0,0,0,0,0,0.0049,0.0051,0.006,0.0052,0.0052,0.0042,0.0049,0.0047,0.0044,0.0024,0.002,0.0037,0.0004,-0.0,-0.0005,0.0005,-0.002,-0.0021,-0.0032,-0.0031,-0.0031,0.0019,0,0,0,0,0,0,0.0048,0.0051,0.0055,0.0052,0.0053,0.0066,0.0049,0.0047,0.0045,0.0043,0.0022,0.0018,0.0003,-0.0003,-0.0006,0.0002,-0.0022,-0.0033,-0.0032,-0.0031,0.0017,0.0022,0.0026,0,0,0,0,0,0.0048,0.0061,0.0056,0.0057,0.006,0.0067,0.0066,0.0056,0.0046,0.005,0.0037,0.0019,-0.0,-0.0003,-0.0007,0.0001,-0.0033,-0.0032,-0.0031,0.0015,0.0021,0.0025,0,0,0,0,0,0,0.0052,0.006,0.0054,0.0068,0.0068,0.0064,0.0068,0.0059,0.0052,0.0048,0.0026,0.0022,0.002,0.0004,0.0001,-0.0,-0.0021,-0.002,0.0016,0.0021,0.0025,0.0028,-0.0023,0,0,0,0,0,0.0056,0.0069,0.007,0.008,0.0082,0.0074,0.0074,0.0068,0.0063,0.0059,0.0045,0.003,0.0021,0.0016,0.0005,0.0006,-0.0029,0.0008,0.0012,0.0016,0.0016,-0.0033,-0.0034,-0.0027,-0.0027,-0.0027,0,0,0.006,0.0066,0.0072,0.0082,0.008,0.0096,0.0073,0.0078,0.0088,0.0055,0.0062,0.0043,0.0024,0.0026,0.0024,0.0015,-0.0004,0.0017,0.0021,0.0018,-0.0032,-0.0033,-0.0034,-0.0027,-0.0027,-0.0027,0,0,0.0081,0.0081,0.0101,0.0106,0.011,0.0109,0.0112,0.0109,0.0105,0.011,0.0087,0.0076,0.0065,0.0054,0.0047,0.0067,0.0019,0.006,0.0086,0.0039,0.0038,0.0037,-0.0006,-0.0012,0.0064,0.0064,0.0064,0,0.0083,0.011,0.0106,0.0127,0.0137,0.0119,0.0143,0.0139,0.0133,0.013,0.0118,0.0092,0.008,0.0076,0.0086,0.0077,0.0038,0.0071,0.0044,0.0042,0.004,-0.0004,-0.0011,0.0067,0.0067,0.0066,0.0066,0,0.0122,0.0141,0.0154,0.0178,0.0188,0.0203,0.0202,0.0201,0.0191,0.0182,0.017,0.0146,0.0129,0.0124,0.0114,0.0096,0.007,0.0053,0.0031,0.0042,-0.0005,-0.0013,0.007,0.007,0.0069,0.0068,0,0,0.0132,0.0174,0.0178,0.0198,0.0215,0.0228,0.0244,0.0251,0.0253,0.0234,0.0229,0.0216,0.0187,0.0176,0.0152,0.0117,0.0075,0.0082,0.0079,0.004,-0.0035,-0.0034,-0.0043,0.0046,0.0045,0.0044,-0.006,0,0.0162,0.0215,0.0228,0.0273,0.0299,0.0293,0.0311,0.031,0.0297,0.0285,0.0247,0.0235,0.0211,0.02,0.0161,0.0096,0.0055,0.0105,-0.004,-0.0044,-0.0044,-0.0052,0.004,-0.0066,-0.0068,-0.007,-0.0071,0,0.0197,0.0229,0.0284,0.0323,0.0333,0.0356,0.0371,0.0384,0.0361,0.0347,0.0315,0.0277,0.0235,0.0207,0.0094,0.0122,0.0049,-0.0007,-0.0012,-0.0035,-0.0058,-0.0081,-0.0086,-0.0085,-0.0084,-0.0083,-0.0082,0,0.0213,0.0266,0.0312,0.0327,0.0369,0.0387,0.0404,0.0401,0.0412,0.0381,0.0372,0.0305,0.0273,0.0173,0.0069,0.0072,-0.007,-0.0082,-0.0152,-0.0153,-0.0146,-0.0144,-0.0173,-0.0173,-0.0173,-0.0173,-0.0172,0,0.0242,0.0276,0.0323,0.035,0.0396,0.0415,0.045,0.0451,0.045,0.0459,0.0404,0.0382,0.026,0.0169,0.0066,-0.0065,-0.0076,-0.0153,-0.0182,-0.0122,-0.0115,-0.0152,-0.0148,-0.0177,-0.0176,-0.0175,-0.0174,0,0.0251,0.0285,0.0337,0.0389,0.0409,0.044,0.049,0.0506,0.0505,0.0511,0.0503,0.0429,0.0312,0.0184,0.0018,-0.006,-0.0189,-0.0236,-0.016,-0.0182,-0.0244,-0.0236,-0.0329,-0.033,-0.033,-0.0331,-0.0331,0,0.026,0.0292,0.0361,0.0391,0.0418,0.0468,0.0502,0.053,0.0549,0.0538,0.0536,0.0438,0.037,0.0146,0.0004,-0.0198,-0.0223,-0.0291,-0.0268,-0.0242,-0.0261,-0.0252,-0.0243,-0.0333,-0.0333,-0.0333,-0.0333,0,0.0267,0.0293,0.033,0.0398,0.0444,0.0501,0.0551,0.0573,0.0599,0.0601,0.0563,0.0454,0.0319,0.0149,-0.0007,-0.0151,-0.0245,-0.0299,-0.0298,-0.0277,-0.0248,-0.0264,-0.0254,-0.0336,-0.0335,-0.0335,-0.0335,0,0.0257,0.0279,0.033,0.0389,0.045,0.0508,0.0545,0.0575,0.0603,0.0604,0.0585,0.0453,0.0381,0.0171,0.0025,-0.0113,-0.0149,-0.0188,-0.0194,-0.0193,-0.0118,-0.0058,-0.0117,0,0,0,0,0,0.0238,0.0263,0.0317,0.038,0.0445,0.0489,0.0562,0.0594,0.0627,0.0612,0.0608,0.0488,0.0283,0.019,0.0051,-0.0011,-0.0191,-0.018,-0.0243,-0.0349,-0.0347,-0.0281,0,0,0,0,0,0,0.0221,0.0262,0.0301,0.0364,0.0409,0.0484,0.0535,0.0567,0.0567,0.0582,0.0478,0.0447,0.0244,0.0357,0.0043,0.0001,-0.0058,-0.0271,-0.0274,-0.0351,-0.0348,-0.0346,-0.0278,0,0,0,0,0]}]]